Weather History for CWGB - February, 2013

Change the Weather History Date:

Thursday, February 21, 2013

  Actual Average Record
Temperature  
Mean Temperature 42 °F -  
Max Temperature 45 °F - - ()
Min Temperature 40 °F - - ()
Degree Days  
Heating Degree Days 22    
Moisture  
Dew Point 38 °F    
Average Humidity 81    
Maximum Humidity 89    
Minimum Humidity 64    
Precipitation  
Precipitation 0.00 in - - ()
Sea Level Pressure  
Sea Level Pressure 29.90 in    
Wind  
Wind Speed 13 mph ()    
Max Wind Speed 20 mph    
Max Gust Speed -    
T = Trace of Precipitation, MM = Missing Value Source: Averaged Metar Reports

Daily Weather History Graph

Daily Weather History Graph

Search for Another Location

Airport or City:

Trip Planner

Search our weather history database for the weather conditions in past years. The results will help you decide how hot, cold, wet, or windy it might be!

Date:

Astronomy

Feb. 21, 2013 Rise Set
Actual Time 7:14 AM PST 5:47 PM PST
Civil Twilight 6:41 AM PST 6:19 PM PST
Nautical Twilight 6:04 AM PST 6:56 PM PST
Astronomical Twilight 5:27 AM PST 7:33 PM PST
Moon 1:53 PM PST (2/21) 4:37 AM PST (2/21)
Length of Visible Light 11h 38m
Length of Day
10h 33m
Waxing Gibbous, 84% of the Moon is Illuminated
Feb 21
Waxing Gibbous
Feb 25
Full
Mar 4
Last Quarter
Mar 11
New
Mar 19
First Quarter

Hourly Weather History & Observations

Time (PST) Temp. Windchill Dew Point Humidity Pressure Visibility Wind Dir Wind Speed Gust Speed Precip Events Conditions
12:00 AM 41.7 °F 33.7 °F 38.5 °F 88% 29.94 in - ESE 16.1 mph - N/A   Unknown
1:00 AM 41.7 °F 33.1 °F 37.9 °F 86% 29.94 in - ESE 18.4 mph - N/A   Unknown
2:00 AM 41.5 °F 32.9 °F 38.5 °F 89% 29.93 in - ESE 18.4 mph - N/A   Unknown
3:00 AM 42.1 °F 33.6 °F 38.8 °F 88% 29.92 in - ESE 18.4 mph - N/A   Unknown
4:00 AM 42 °F - 38 °F 80% 29.90 in - ESE 19.6 mph - -  
4:00 AM 41.9 °F 33.1 °F 37.9 °F 86% 29.90 in - ESE 19.6 mph - N/A   Unknown
5:00 AM 41.9 °F 33.7 °F 37.8 °F 85% 29.89 in - ESE 17.3 mph - N/A   Unknown
6:00 AM 42.1 °F 33.6 °F 37.8 °F 85% 29.88 in - ESE 18.4 mph - N/A   Unknown
7:00 AM 42.3 °F 33.6 °F 38.5 °F 86% 29.87 in - ESE 19.6 mph - N/A   Unknown
8:00 AM 43.3 °F 36.1 °F 37.6 °F 80% 29.87 in - ESE 15.0 mph - N/A   Unknown
9:00 AM 43.3 °F 35.0 °F 38.5 °F 83% 29.87 in - ESE 19.6 mph - N/A   Unknown
10:00 AM 45 °F - 38 °F 69% 29.87 in - ESE 10.4 mph - -  
10:00 AM 45.3 °F 40.1 °F 38.1 °F 76% 29.87 in - ESE 10.4 mph - N/A   Unknown
11:00 AM 44.2 °F 36.2 °F 37.4 °F 77% 29.87 in - ESE 19.6 mph - N/A   Unknown
12:00 PM 45.7 °F 39.5 °F 39.0 °F 78% 29.88 in - East 13.8 mph - N/A   Unknown
1:00 PM 45.9 °F 40.0 °F 38.7 °F 76% 29.89 in - ESE 12.7 mph - N/A   Unknown
2:00 PM 45.9 °F 40.4 °F 39.4 °F 78% 29.90 in - East 11.5 mph - N/A   Unknown
3:00 PM 44.6 °F 38.1 °F 39.9 °F 84% 29.90 in - East 13.8 mph - N/A   Unknown
4:00 PM 45 °F - 40 °F 75% 29.90 in - East 11.5 mph - -  
4:00 PM 45.0 °F 39.3 °F 39.7 °F 82% 29.90 in - East 11.5 mph - N/A   Unknown
5:00 PM 44.8 °F 40.4 °F 40.1 °F 84% 29.93 in - East 8.1 mph - N/A   Unknown
6:00 PM 44.2 °F 38.0 °F 41.0 °F 88% 29.91 in - ESE 12.7 mph - N/A   Unknown
7:00 PM 44.2 °F 38.8 °F 40.3 °F 86% 29.91 in - ESE 10.4 mph - N/A   Unknown
8:00 PM 44.6 °F 39.2 °F 40.3 °F 85% 29.93 in - ESE 10.4 mph - N/A   Unknown
9:00 PM 44.6 °F - 36.7 °F 74% 29.93 in - SSE 2.3 mph - N/A   Unknown
10:00 PM 44 °F - 36 °F 64% 29.92 in - ESE 3.5 mph - -  
10:00 PM 44.4 °F 42.9 °F 35.8 °F 72% 29.92 in - ESE 3.5 mph - N/A   Unknown
11:00 PM 44.4 °F - 35.4 °F 71% 29.92 in - SE 2.3 mph - N/A   Unknown